#timestamp,LO_Frequency,Hit,StdDev 
1609349595.1,286047036.7,P
1609349596.0,286047036.7,P
1609349615.8,286047037.8,P
1609349635.7,286047036.8,Y
1609349655.5,286047000.2,P
1609349675.3,286047000.9,N
1609349695.2,286047002.8,N
1609349715.0,286047000.6,N
1609349715.9,286047000.6,N
1609349735.8,286047001.0,N
1609349755.6,286047000.2,N
1609349775.4,286047000.6,N
1609349795.3,286047002.6,N
1609349815.1,286047002.8,N
1609349835.9,286046999.9,N
1609349855.7,286046999.8,N
1609349875.5,286047000.6,N
1609349895.4,286047000.1,N
1609349915.2,286047002.6,N
1609349935.0,286047001.9,N
1609349936.0,286047001.9,N
1609349955.8,286047011.9,N
1609349975.6,286047002.1,N
1609349995.5,286047004.3,N
1609350015.3,286047002.9,N
1609350035.1,286047005.9,N
1609350055.9,286047003.1,N
1609350075.7,286047005.9,N
1609350095.6,286047003.8,N
1609350115.4,286047002.9,N
1609350135.2,286047003.0,N
1609350155.1,286047003.0,N
1609350156.0,286047003.0,N
1609350175.8,286047002.9,N
1609350195.6,286047006.0,N
1609350215.5,286047005.4,N
1609350235.3,286047007.3,N
1609350255.2,286047005.6,N
1609350275.9,286047004.1,N
1609350295.7,286047004.9,N
1609350315.6,286047004.5,N
1609350335.4,286047007.0,N
1609350355.2,286047008.5,Y
1609350375.1,286047004.8,P
1609350376.0,286047004.8,P
1609350395.8,286047003.7,P
1609350415.7,286047004.3,Y
1609350435.5,286047000.6,P
1609350455.3,286047000.0,N
1609350475.2,286047002.5,N
1609350495.0,286047000.3,N
1609350495.9,286047000.3,N
1609350515.8,286047000.7,N
1609350535.6,286046998.2,N
1609350555.4,286047001.1,N
1609350575.3,286047000.9,N
1609350595.1,286047000.3,N
1609350615.9,286047002.3,N
1609350635.7,286047002.3,N
1609350655.5,286047000.4,N
1609350675.4,286047002.3,N
1609350695.2,286047002.0,N
1609350715.0,286047002.2,N
1609350716.0,286047002.2,N
1609350735.8,286047000.2,N
1609350755.6,286047001.2,N
1609350775.5,286046998.3,N
1609350795.3,286046996.7,N
1609350815.1,286046997.9,N
1609350835.9,286046995.3,N
1609350855.7,286046997.1,N
1609350875.6,286046998.9,N
1609350895.4,286046998.1,N
1609350915.2,286047000.9,N
1609350935.1,286046999.8,N
1609350936.0,286046999.8,N
1609350955.8,286047000.3,N
1609350975.7,286047001.2,N
1609350995.5,286047000.6,N
1609351015.3,286047000.3,N
1609351035.2,286046998.8,N
1609351055.0,286047001.1,N
1609351055.9,286047001.1,N
1609351075.7,286046998.3,N
1609351095.6,286047000.7,N
1609351115.4,286047000.4,N
1609351135.3,286047002.8,N
1609351155.1,286047000.0,N
1609351156.0,286047000.0,N
1609351175.8,286047000.1,N
1609351195.7,286046998.1,N
